FW6892 Weather Reports


time (UTC)temp
F
wind
direction
speed
knots
gust
knots
rain 1hr
in
rain 24hr
in
rain mn
in
humidity
%
barometer
mb
20260508045508 46 332 0.0 0.0 0.00 0.00 0.00 60 1011.8
20260508045007 46 16 0.0 0.0 0.00 0.00 0.00 60 1011.8
20260508044508 46 0 0.0 0.0 0.00 0.00 0.00 59 1011.8
20260508044008 46 4 0.0 0.9 0.00 0.00 0.00 59 1011.8
20260508043507 46 338 0.0 0.0 0.00 0.00 0.00 59 1011.5
20260508043008 46 336 0.0 1.7 0.00 0.00 0.00 59 1011.8
20260508042508 46 317 0.0 0.0 0.00 0.00 0.00 59 1011.5
20260508042007 46 340 0.9 0.9 0.00 0.00 0.00 59 1011.5
20260508041508 46 353 0.0 0.0 0.00 0.00 0.00 59 1011.8
20260508041008 46 328 0.0 0.0 0.00 0.00 0.00 59 1011.8
20260508040008 47 326 0.0 0.0 0.00 0.00 0.00 59 1011.5
20260508035508 47 358 0.0 0.9 0.00 0.00 0.00 59 1011.5
20260508035008 47 356 0.0 1.7 0.00 0.00 0.00 59 1011.5
20260508034508 47 24 0.9 1.7 0.00 0.00 0.00 59 1011.5
20260508034008 47 26 1.7 1.7 0.00 0.00 0.00 59 1011.5
20260508033509 47 335 0.0 0.0 0.00 0.00 0.00 59 1011.5
20260508033008 47 338 0.0 0.0 0.00 0.00 0.00 59 1011.5
20260508031507 47 340 0.0 0.9 0.00 0.00 0.00 59 1011.5
20260508031008 47 109 0.0 0.9 0.00 0.00 0.00 59 1011.5
20260508024508 47 341 0.9 0.9 0.00 0.00 0.00 58 1011.5
20260508024008 47 337 0.0 0.0 0.00 0.00 0.00 58 1011.5
20260508023008 47 344 1.7 1.7 0.00 0.00 0.00 57 1011.8
20260508022508 47 332 0.0 0.0 0.00 0.00 0.00 57 1011.5
20260508022008 47 331 0.9 1.7 0.00 0.00 0.00 57 1011.5
20260508021508 47 10 2.6 3.5 0.00 0.00 0.00 57 1011.5
20260508021008 48 349 0.0 0.0 0.00 0.00 0.00 57 1011.5
20260508020508 48 342 1.7 2.6 0.00 0.00 0.00 57 1011.5
20260508020008 48 329 2.6 2.6 0.00 0.00 0.00 57 1011.5
20260508015508 48 345 0.0 1.7 0.00 0.00 0.00 57 1011.5
20260508014508 48 7 0.0 0.0 0.00 0.00 0.00 57 1011.5
20260508014008 48 344 0.9 2.6 0.00 0.00 0.00 56 1011.5
20260508013508 48 35 1.7 2.6 0.00 0.00 0.00 56 1011.5
20260508013008 48 10 1.7 2.6 0.00 0.00 0.00 56 1011.5
20260508012508 48 30 3.5 3.5 0.00 0.00 0.00 56 1011.5
20260508012007 48 26 2.6 2.6 0.00 0.00 0.00 57 1011.1
20260508011508 48 35 0.0 1.7 0.00 0.00 0.00 56 1011.5
20260508011007 49 352 1.7 2.6 0.00 0.00 0.00 56 1011.5
20260508010508 49 33 1.7 2.6 0.00 0.00 0.00 55 1011.1
20260508010008 49 36 0.0 0.9 0.00 0.00 0.00 55 1011.1
20260508005507 49 338 0.0 0.0 0.00 0.00 0.00 54 1011.1
20260508005008 49 2 2.6 3.5 0.00 0.00 0.00 53 1011.1
20260508004508 49 327 0.0 0.9 0.00 0.00 0.00 53 1011.1
20260508004007 50 24 1.7 2.6 0.00 0.00 0.00 52 1011.1
20260508003508 50 4 0.0 1.7 0.00 0.00 0.00 52 1010.8
20260508003008 50 2 1.7 3.5 0.00 0.00 0.00 51 1010.8
20260508002507 50 0 2.6 3.5 0.00 0.00 0.00 51 1010.8
20260508002007 50 7 3.5 4.3 0.00 0.00 0.00 50 1010.8
20260508001508 50 351 3.5 3.5 0.00 0.00 0.00 50 1010.8
20260508001007 51 347 1.7 3.5 0.00 0.00 0.00 49 1010.8
20260508000508 51 319 1.7 3.5 0.00 0.00 0.00 48 1010.8
20260508000008 51 289 2.6 3.5 0.00 0.00 0.00 47 1010.8
20260507235507 51 327 2.6 3.5 0.00 0.00 0.00 47 1010.8
20260507235008 51 314 3.5 4.3 0.00 0.00 0.00 47 1010.8
20260507234008 52 315 2.6 2.6 0.00 0.00 0.00 46 1010.8
20260507233008 52 303 7.8 7.8 0.00 0.00 0.00 45 1010.4
20260507232507 52 267 3.5 11.3 0.00 0.00 0.00 45 1010.4
20260507231508 52 325 6.1 8.7 0.00 0.00 0.00 44 1010.4
20260507230508 52 310 3.5 9.6 0.00 0.00 0.00 43 1010.4
20260507230008 53 351 7.8 7.8 0.00 0.00 0.00 43 1010.4
20260507225508 53 330 2.6 7.0 0.00 0.00 0.00 43 1010.4
20260507225007 53 335 3.5 8.7 0.00 0.00 0.00 43 1010.4
20260507224508 53 304 4.3 11.3 0.00 0.00 0.00 44 1010.4
20260507224008 53 299 2.6 10.4 0.00 0.00 0.00 46 1010.4
20260507223508 52 359 7.0 8.7 0.00 0.00 0.00 47 1010.4
20260507223008 52 334 3.5 8.7 0.00 0.00 0.00 48 1010.4
20260507222509 52 359 6.1 6.1 0.00 0.00 0.00 51 1010.4
20260507222008 52 18 2.6 5.2 0.00 0.00 0.00 51 1010.4
20260507221508 52 358 4.3 5.2 0.00 0.00 0.00 50 1010.4
20260507221008 52 354 4.3 6.1 0.00 0.00 0.00 49 1010.4
20260507220509 53 357 6.1 13.0 0.00 0.00 0.00 47 1010.4
20260507220008 54 275 5.2 5.2 0.00 0.00 0.00 46 1010.4
20260507215508 54 17 3.5 6.1 0.00 0.00 0.00 46 1010.4
20260507215008 55 286 5.2 8.7 0.00 0.00 0.00 44 1010.4
20260507214508 55 317 7.0 7.0 0.00 0.00 0.00 44 1010.4
20260507213508 55 326 5.2 7.8 0.00 0.00 0.00 44 1010.1
20260507213008 56 277 7.0 8.7 0.00 0.00 0.00 44 1010.1
20260507212507 55 357 5.2 8.7 0.00 0.00 0.00 43 1010.1
20260507212007 55 345 7.8 9.6 0.00 0.00 0.00 43 1010.1
20260507211508 55 252 3.5 12.2 0.00 0.00 0.00 43 1010.1
20260507211009 55 300 7.0 7.0 0.00 0.00 0.00 44 1009.8
20260507210008 55 310 7.0 10.4 0.00 0.00 0.00 45 1009.8
20260507205508 54 298 8.7 8.7 0.00 0.00 0.00 45 1009.8
20260507205008 54 279 7.0 7.0 0.00 0.00 0.00 44 1009.8
20260507204508 55 317 6.1 11.3 0.00 0.00 0.00 43 1009.8
20260507204008 55 330 5.2 11.3 0.00 0.00 0.00 42 1010.1
20260507203507 56 281 6.1 11.3 0.00 0.00 0.00 40 1009.8
20260507203008 57 311 13.9 13.9 0.00 0.00 0.00 40 1009.8
20260507202508 57 322 7.8 12.2 0.00 0.00 0.00 39 1009.8
20260507200508 57 321 7.0 8.7 0.00 0.00 0.00 41 1009.8
20260507200008 56 336 6.1 13.0 0.00 0.00 0.00 42 1009.8
20260507195508 56 334 8.7 10.4 0.00 0.00 0.00 43 1009.8
20260507195007 56 358 7.0 14.8 0.00 0.00 0.00 41 1009.8
20260507194508 56 343 6.1 9.6 0.00 0.00 0.00 40 1009.8
20260507194009 56 320 7.0 9.6 0.00 0.00 0.00 42 1010.1
20260507193507 56 308 6.1 13.9 0.00 0.00 0.00 44 1009.8
20260507193009 55 238 7.8 11.3 0.00 0.00 0.00 44 1009.8
20260507192508 53 350 7.8 10.4 0.00 0.00 0.00 46 1009.8
20260507191007 53 310 8.7 8.7 0.00 0.00 0.00 46 1010.1
20260507190508 53 248 11.3 19.1 0.00 0.00 0.00 46 1010.1
20260507190008 53 311 6.1 17.4 0.00 0.00 0.00 46 1010.1
20260507185509 53 302 13.0 13.0 0.00 0.00 0.00 45 1009.8
20260507185008 53 290 7.8 13.0 0.00 0.00 0.00 44 1010.1
20260507184508 54 321 7.0 7.8 0.00 0.00 0.00 44 1010.1
20260507184008 55 297 8.7 11.3 0.00 0.00 0.00 43 1010.1
20260507183508 54 339 8.7 11.3 0.00 0.00 0.00 46 1009.8
20260507183008 53 224 9.6 11.3 0.00 0.00 0.00 45 1010.1
20260507182508 53 297 12.2 13.9 0.00 0.00 0.00 46 1010.1
20260507181507 53 338 8.7 8.7 0.00 0.00 0.00 45 1009.8
20260507181010 53 334 7.8 10.4 0.00 0.00 0.00 44 1010.1
20260507180508 54 274 6.1 9.6 0.00 0.00 0.00 45 1009.8
20260507180012 53 19 7.8 8.7 0.00 0.00 0.00 45 1009.8
20260507175508 53 307 13.0 13.0 0.00 0.00 0.00 45 1009.8
20260507175008 53 328 8.7 10.4 0.00 0.00 0.00 46 1009.8
20260507174508 53 305 3.5 7.8 0.00 0.00 0.00 46 1009.4
20260507174008 54 302 7.8 13.0 0.00 0.00 0.00 45 1009.8
20260507173508 54 271 8.7 11.3 0.00 0.00 0.00 45 1009.8
20260507172508 53 253 13.0 13.0 0.00 0.00 0.00 45 1009.8
20260507172008 53 284 6.1 9.6 0.00 0.00 0.00 44 1009.8
20260507171508 53 144 7.8 10.4 0.00 0.00 0.00 46 1009.4
20260507171008 54 344 3.5 9.6 0.00 0.00 0.00 44 1009.8
20260507170509 54 275 8.7 9.6 0.00 0.00 0.00 44 1009.8
20260507170008 54 301 12.2 13.9 0.00 0.00 0.00 45 1009.8
20260507165509 54 307 5.2 12.2 0.00 0.00 0.00 45 1009.8
20260507164508 53 296 10.4 13.9 0.00 0.00 0.00 46 1009.8
20260507164008 53 306 8.7 12.2 0.00 0.00 0.00 46 1009.8
20260507163508 53 303 7.0 14.8 0.00 0.00 0.00 46 1010.1
20260507163008 55 254 6.1 12.2 0.00 0.00 0.00 46 1009.8
20260507162507 56 325 7.8 12.2 0.00 0.00 0.00 44 1009.8
20260507162008 58 312 7.8 13.0 0.00 0.00 0.00 46 1009.8
20260507161508 57 328 13.0 13.0 0.00 0.00 0.00 49 1009.8
20260507161008 56 304 6.1 10.4 0.00 0.00 0.00 47 1009.8
20260507160508 57 289 5.2 10.4 0.00 0.00 0.00 47 1010.1
20260507160008 58 273 7.8 13.0 0.00 0.00 0.00 48 1009.8
20260507155007 57 261 11.3 13.9 0.00 0.00 0.00 47 1009.8
20260507154508 56 280 2.6 11.3 0.00 0.00 0.00 49 1010.1
20260507153509 56 210 8.7 13.9 0.00 0.00 0.00 48 1010.1
20260507153010 57 286 9.6 13.0 0.00 0.00 0.00 47 1010.1
20260507152508 57 290 7.8 8.7 0.00 0.00 0.00 51 1010.1
20260507152008 56 269 6.1 11.3 0.00 0.00 0.00 50 1010.1
20260507151509 56 254 7.8 10.4 0.00 0.00 0.00 51 1010.1
20260507150010 54 282 7.0 13.9 0.00 0.00 0.00 53 1009.8
20260507145008 55 237 3.5 18.2 0.00 0.00 0.00 53 1009.8
20260507144508 55 82 4.3 9.6 0.00 0.00 0.00 52 1010.1
20260507144008 55 250 6.1 12.2 0.00 0.00 0.00 52 1009.8
20260507143508 54 276 11.3 14.8 0.00 0.00 0.00 53 1010.1
20260507143009 54 214 7.8 16.5 0.00 0.00 0.00 53 1010.1
20260507142508 54 203 2.6 10.4 0.00 0.00 0.00 54 1009.8
20260507142007 54 227 6.1 9.6 0.00 0.00 0.00 53 1010.1
20260507141508 54 167 6.1 9.6 0.00 0.00 0.00 54 1010.1
20260507141008 53 230 3.5 9.6 0.00 0.00 0.00 55 1010.1
20260507140508 53 260 8.7 10.4 0.00 0.00 0.00 55 1010.1
20260507140008 53 332 7.0 9.6 0.00 0.00 0.00 54 1010.1
20260507135508 52 247 9.6 11.3 0.00 0.00 0.00 58 1010.1
20260507135008 52 259 10.4 11.3 0.00 0.00 0.00 57 1010.1
20260507134508 52 273 12.2 13.0 0.00 0.00 0.00 57 1010.1
20260507134008 51 233 6.1 14.8 0.00 0.00 0.00 59 1010.1
20260507133508 50 261 7.8 10.4 0.00 0.00 0.00 58 1010.1
20260507133009 51 289 9.6 13.0 0.00 0.00 0.00 59 1010.1
20260507132508 50 256 7.0 12.2 0.00 0.00 0.00 58 1010.1
20260507132008 50 267 12.2 12.2 0.00 0.00 0.00 60 1010.1
20260507131507 50 260 2.6 10.4 0.00 0.00 0.00 60 1010.1
20260507131008 49 238 8.7 11.3 0.00 0.00 0.00 61 1010.4
20260507130508 49 209 9.6 11.3 0.00 0.00 0.00 62 1010.4
20260507130010 48 333 8.7 8.7 0.00 0.00 0.00 63 1010.1
20260507125508 48 267 3.5 10.4 0.00 0.00 0.00 64 1010.4
20260507125008 48 156 7.0 11.3 0.00 0.00 0.00 65 1010.4
20260507124508 47 238 8.7 13.0 0.00 0.00 0.00 65 1010.4
20260507124008 47 244 7.0 9.6 0.00 0.00 0.00 66 1010.1